Date,TemperatureHighF,TemperatureAvgF,TemperatureLowF,DewpointHighF,DewpointAvgF,DewpointLowF,HumidityHigh,HumidityAvg,HumidityLow,PressureMaxIn,PressureMinIn,WindSpeedMaxMPH,WindSpeedAvgMPH,GustSpeedMaxMPH,PrecipitationSumIn
2013-1-3,24,17,12,8,5,2,66,60,51,30.11,30.05,6,2,8,0.00
2013-1-4,43,27,15,16,10,7,71,53,33,30.06,30.05,2,0,2,0.00
2013-1-5,1,-2,-4,-2,-6,-8,85,85,84,30.06,30.05,1,0,2,0.00
2013-1-9,42,38,33,35,34,33,99,86,74,29.76,29.46,10,3,23,0.07
2013-1-10,33,24,20,33,21,14,98,85,65,29.51,29.41,1,0,5,0.01
2013-1-11,32,18,5,15,10,2,86,72,43,29.80,29.50,8,3,19,0.00
2013-1-12,34,5,-8,11,-1,-12,89,77,35,29.87,29.79,4,1,7,0.00
2013-1-13,38,3,-11,11,-4,-14,88,75,29,29.97,29.85,3,1,7,0.00
2013-1-14,22,8,-6,12,4,-10,88,82,65,30.07,29.96,4,0,5,0.00
2013-1-15,44,19,5,22,12,2,93,78,41,30.27,30.07,2,0,4,0.02
2013-1-16,32,8,-1,16,4,-3,89,82,49,30.31,30.25,3,0,8,0.00
2013-1-17,32,8,-3,16,2,-6,90,80,46,30.31,30.18,2,0,4,0.00
2013-1-18,30,7,-5,14,1,-8,90,79,50,30.19,30.09,2,0,5,0.00
2013-1-19,35,8,-4,14,2,-8,89,76,38,30.21,30.14,2,0,4,0.00
2013-1-20,36,9,-5,17,2,-9,90,76,41,30.21,30.13,4,0,6,0.00
2013-1-21,37,11,-3,18,4,-6,89,76,39,30.15,30.03,2,0,4,0.00
2013-1-22,34,9,-6,16,2,-9,89,75,45,30.07,29.95,2,0,4,0.00
2013-1-23,35,17,1,33,12,-2,93,82,59,29.96,29.84,4,1,11,0.01
2013-1-24,48,36,32,44,34,32,99,94,71,29.99,29.88,5,1,15,0.35
2013-1-25,40,36,34,39,36,34,99,99,95,29.99,29.75,8,1,16,0.39
2013-1-26,41,34,29,38,34,28,99,98,87,29.78,29.59,5,1,14,0.18
2013-1-27,38,24,15,28,20,14,99,86,54,29.71,29.65,0,0,0,0.04
2013-1-28,32,20,12,24,18,10,98,91,67,29.71,29.61,0,0,0,0.00
2013-1-29,38,27,22,30,25,22,99,91,70,29.92,29.61,4,0,11,0.04
2013-1-30,50,32,26,36,29,26,99,90,52,30.02,29.90,4,0,8,0.08
2013-1-31,42,32,24,37,30,24,99,95,79,30.05,29.97,2,0,5,0.01
2013-2-1,51,34,19,42,30,18,99,85,46,30.14,29.97,5,1,9,0.00
2013-2-2,48,22,8,29,17,6,96,82,43,30.19,30.06,4,0,7,0.00
2013-2-3,40,21,12,29,18,10,95,88,59,30.06,29.93,3,1,7,0.19
2013-2-4,53,31,17,33,26,16,97,83,46,29.93,29.82,141,2,141,0.00
2013-2-5,51,35,25,34,28,24,98,78,43,29.82,29.66,4,1,14,0.00
2013-2-6,49,30,19,34,22,16,98,77,44,29.85,29.73,7,1,10,0.00
2013-2-7,46,30,18,26,22,16,91,73,41,29.83,29.65,11,2,19,0.00
2013-2-8,40,27,14,25,20,13,97,76,50,29.70,29.63,11,3,21,0.00
2013-2-9,38,29,22,24,19,13,89,68,48,29.75,29.66,11,4,23,0.00
2013-2-10,43,26,12,22,16,9,91,69,33,29.89,29.75,8,2,14,0.00
2013-2-11,46,21,4,21,12,1,92,72,35,29.93,29.86,6,1,9,0.00
2013-2-15,58,38,22,30,25,20,91,64,28,30.45,30.34,4,1,5,0.00
2013-2-16,54,36,14,33,26,13,99,73,36,30.35,29.95,10,2,21,0.01
2013-2-17,48,29,17,37,23,15,98,83,38,30.10,29.98,6,1,10,0.12
2013-2-18,38,20,5,22,13,3,93,76,41,30.10,29.81,6,1,11,0.00
2013-2-19,44,25,16,33,21,13,95,86,61,29.81,29.70,5,0,8,0.13
2013-2-20,41,22,4,27,14,2,96,74,39,29.95,29.80,9,1,17,0.02
2013-2-21,37,18,-4,24,11,-7,96,76,37,30.05,29.94,6,1,8,0.00
2013-2-22,34,27,19,29,25,18,99,93,77,30.07,29.78,10,2,22,0.04
2013-2-23,40,26,17,31,21,16,99,83,47,30.15,29.73,17,3,31,0.07
2013-2-24,47,22,4,25,15,2,97,77,33,30.26,30.14,5,1,8,0.02
2013-2-25,44,21,9,30,17,7,96,85,50,30.18,30.01,11,1,14,0.13
2013-2-26,50,20,2,26,13,-1,96,79,33,30.29,30.10,5,1,7,0.02
2013-2-27,51,21,3,25,12,0,92,74,28,30.33,30.26,4,1,6,0.00
2013-2-28,41,29,16,34,27,13,99,91,72,30.43,30.27,7,1,11,0.19
2013-3-1,56,37,28,44,35,28,99,93,58,30.48,30.42,4,1,8,0.02
2013-3-2,56,36,23,39,31,23,99,84,50,30.43,30.04,8,1,14,0.00
2013-3-3,45,34,16,37,20,3,98,62,24,30.10,29.97,13,3,25,0.14
2013-3-4,48,25,7,19,10,1,89,58,17,30.21,30.09,7,1,12,0.00
2013-3-5,47,28,11,26,16,6,82,63,34,30.14,29.82,9,1,15,0.00
2013-3-6,39,32,28,37,30,23,99,92,75,29.96,29.73,11,1,34,0.14
2013-3-7,52,31,16,34,24,16,99,77,33,30.06,29.95,6,1,10,0.11
2013-3-8,53,29,8,25,17,6,94,66,22,30.02,29.89,7,2,14,0.00
2013-3-9,51,32,12,23,18,9,88,61,31,30.35,30.02,8,2,17,0.00
2013-3-10,50,31,12,25,18,10,91,64,26,30.38,30.27,4,1,8,0.00
2013-3-11,54,40,33,37,31,24,99,72,39,30.27,30.21,11,2,16,0.01
2013-3-12,54,39,26,37,31,24,94,77,49,30.25,30.19,4,1,9,0.00
2013-3-13,37,36,34,34,33,32,92,89,86,30.24,30.23,3,0,4,0.00
2013-3-14,59,48,26,35,31,25,94,52,33,30.26,30.14,6,2,13,0.00
2013-3-15,64,44,32,36,31,28,90,64,30,30.18,30.10,8,1,10,0.00
2013-3-16,56,37,22,35,28,21,97,73,35,30.12,29.84,14,2,23,0.00
2013-3-17,39,30,23,31,17,10,85,58,37,30.06,29.82,23,5,44,0.01
2013-3-18,44,30,17,26,18,12,86,63,35,30.13,30.04,12,2,22,0.02
2013-3-19,54,33,12,23,12,-4,86,50,10,30.22,30.00,8,2,15,0.00
2013-3-20,46,38,33,42,33,20,99,86,43,30.00,29.71,22,4,35,0.91
2013-3-21,33,31,29,28,26,21,92,82,69,29.91,29.86,8,2,17,0.00
2013-3-22,35,28,17,24,15,7,94,62,32,30.14,29.96,12,3,18,0.04
2013-3-23,44,21,7,23,12,4,91,72,28,30.23,30.13,8,1,14,0.00
2013-3-24,49,26,7,20,13,5,90,63,24,30.23,30.13,4,1,8,0.00
2013-3-25,55,32,14,27,18,11,87,61,22,30.16,30.00,4,1,7,0.00
2013-3-26,60,41,30,33,29,25,91,65,32,30.01,29.96,11,1,14,0.00
2013-3-27,61,38,24,39,31,24,98,78,39,30.05,30.00,6,1,12,0.00
2013-3-28,64,43,30,39,32,28,98,71,30,30.12,30.04,8,1,14,0.00
2013-3-29,63,44,35,43,36,31,99,75,40,30.23,30.12,6,1,13,0.02
2013-3-30,70,44,26,39,30,16,99,66,13,30.28,30.17,6,1,11,0.00
2013-3-31,74,44,22,30,23,10,89,53,10,30.18,29.96,6,2,10,0.00
2013-4-1,68,45,26,37,29,22,89,57,26,30.06,29.98,8,2,13,0.00
2013-4-2,71,46,29,38,33,28,96,65,26,30.13,30.06,8,2,17,0.00
2013-4-3,66,46,32,41,34,29,96,67,32,30.19,30.10,10,1,14,0.00
2013-4-4,60,43,34,42,36,31,95,79,44,30.12,29.93,13,1,22,0.00
2013-4-5,62,44,36,43,38,34,99,84,41,30.03,29.93,10,2,18,0.14
2013-4-6,51,41,37,46,39,34,99,93,70,30.02,29.93,8,1,14,0.50
2013-4-7,48,37,32,43,36,30,99,95,66,29.93,29.73,13,2,24,0.78
2013-4-8,46,36,28,30,26,24,93,71,45,30.03,29.76,16,4,30,0.01
2013-4-9,55,40,28,26,22,17,76,53,25,30.22,30.02,17,4,26,0.00
2013-4-10,56,44,28,42,34,20,92,68,32,30.23,30.02,10,2,21,0.04
2013-4-11,59,42,28,33,28,20,94,62,30,30.11,30.02,11,2,15,0.00
2013-4-12,58,40,24,32,24,14,92,59,19,30.08,29.77,10,2,17,0.00
2013-4-13,46,38,27,36,18,1,81,45,17,29.90,29.68,19,4,32,0.02
2013-4-14,47,31,23,28,21,15,94,67,30,29.91,29.80,10,2,15,0.00
2013-4-15,45,32,22,33,26,22,98,80,42,29.88,29.77,12,2,19,0.04
2013-4-16,46,34,25,24,18,13,75,53,27,30.13,29.86,14,5,30,0.01
2013-4-17,50,35,22,18,10,-2,76,41,12,30.28,30.12,13,4,25,0.00
2013-4-18,56,37,20,29,20,12,79,51,25,30.32,30.24,12,2,20,0.00
2013-4-19,45,40,36,42,37,28,99,90,66,30.25,30.03,6,1,14,0.40
2013-4-20,60,44,34,44,35,29,99,76,39,30.17,30.07,14,2,22,0.06
2013-4-21,54,42,31,39,32,27,95,71,37,30.16,30.03,12,2,24,0.01
2013-4-22,50,39,31,33,21,9,90,53,23,30.31,30.07,14,5,25,0.00
2013-4-23,56,39,23,26,15,-4,88,44,10,30.31,30.14,8,2,16,0.00
2013-4-24,62,43,25,26,19,9,82,45,13,30.30,30.12,11,2,17,0.00
2013-4-25,69,48,28,32,26,15,87,50,13,30.15,30.04,13,2,22,0.00
2013-4-26,75,52,32,38,33,27,89,54,17,30.28,30.15,13,2,17,0.00
2013-4-27,75,54,34,44,32,17,93,53,13,30.30,30.13,11,2,23,0.00
2013-4-28,64,52,43,42,33,19,82,51,19,30.15,30.06,19,3,30,0.00
2013-4-29,56,47,35,43,29,5,90,53,15,30.06,29.90,16,4,27,0.17
2013-4-30,46,35,26,29,20,12,89,57,29,30.25,29.95,13,4,22,0.00
2013-5-1,60,39,21,24,17,5,86,47,12,30.55,30.25,10,3,17,0.00
2013-5-2,72,46,26,34,23,12,86,49,10,30.57,30.33,11,2,14,0.00
2013-5-3,69,50,34,35,28,19,81,48,17,30.33,30.15,11,3,24,0.00
2013-5-4,66,54,43,34,31,24,69,44,21,30.17,30.05,12,4,21,0.00
2013-5-5,77,54,35,46,33,23,88,51,14,30.06,29.95,11,2,19,0.00
2013-5-6,82,57,36,42,33,16,93,51,10,30.02,29.89,8,2,18,0.00
2013-5-7,79,57,38,52,38,26,93,59,15,30.08,29.92,14,3,27,0.04
2013-5-8,82,62,42,49,40,20,94,54,10,30.17,30.06,11,2,17,0.00
2013-5-9,83,63,42,47,39,26,92,50,13,30.23,30.14,10,2,18,0.00
2013-5-10,86,63,42,47,36,20,90,47,10,30.32,30.23,8,2,14,0.00
2013-5-11,85,62,44,52,40,27,81,51,12,30.33,30.22,11,2,18,0.00
2013-5-12,87,65,46,54,42,29,84,50,14,30.26,30.10,11,2,21,0.00
2013-5-13,84,59,46,52,42,27,90,60,14,30.16,29.99,16,3,31,0.00
2013-5-14,76,57,40,47,36,16,89,54,14,30.15,30.05,10,2,25,0.00
2013-5-15,75,56,40,47,38,27,90,56,19,30.10,29.96,11,2,19,0.00
2013-5-16,64,56,45,45,42,38,92,60,43,30.00,29.91,7,2,12,0.00
2013-5-17,63,49,44,48,45,41,99,86,47,30.03,29.93,7,1,14,0.35
2013-5-18,68,50,42,46,39,30,99,70,27,30.13,30.02,11,2,24,0.09
2013-5-19,62,50,38,40,37,34,94,64,37,30.27,30.12,11,3,21,0.00
2013-5-20,79,56,36,42,38,33,96,59,21,30.27,30.08,8,2,11,0.00
2013-5-21,72,56,39,50,38,29,92,58,22,30.08,29.74,18,3,34,0.00
2013-5-22,56,43,31,43,28,7,95,61,16,30.00,29.77,12,3,21,0.00
2013-5-23,64,44,25,30,20,1,92,47,10,30.01,29.92,12,2,19,0.00
2013-5-24,66,47,33,38,32,27,86,59,29,30.04,30.00,14,3,26,0.00
2013-5-25,74,52,42,42,36,26,85,59,17,30.04,30.00,17,2,27,0.00
2013-5-26,66,49,40,47,42,34,99,78,46,30.04,29.98,8,2,16,0.11
2013-5-27,65,50,42,48,42,34,99,80,36,30.06,29.91,11,2,20,0.14
2013-5-28,60,49,42,48,44,40,99,85,51,29.94,29.85,9,2,14,0.32
2013-5-29,60,46,37,48,42,36,99,88,56,29.99,29.82,9,2,18,0.14
2013-5-30,63,48,37,45,39,34,99,75,38,30.16,29.98,9,2,18,0.00
2013-5-31,70,51,33,40,33,25,99,58,19,30.29,30.15,10,2,15,0.00
2013-6-1,77,56,35,44,37,31,91,55,21,30.30,30.06,11,2,14,0.00
2013-6-2,72,55,42,48,40,31,90,62,25,30.07,29.93,11,3,21,0.00
2013-6-3,75,55,35,42,37,30,98,57,20,30.11,30.05,10,2,17,0.00
2013-6-4,80,60,39,46,38,30,94,52,17,30.17,30.09,9,2,17,0.00
2013-6-5,88,64,42,50,41,29,89,52,13,30.19,30.11,11,2,17,0.00
2013-6-6,92,66,48,54,45,33,89,54,13,30.17,30.07,6,1,10,0.00
2013-6-7,86,68,49,54,45,26,87,50,14,30.12,30.03,11,2,21,0.00
2013-6-8,88,67,45,48,39,18,85,44,10,30.15,30.09,8,2,14,0.00
2013-6-9,92,68,47,53,42,21,86,47,10,30.13,29.95,11,2,21,0.00
2013-6-10,91,68,47,48,38,14,85,42,10,29.99,29.82,16,2,27,0.00
2013-6-11,80,65,50,53,42,31,77,48,18,30.02,29.87,11,2,21,0.00
2013-6-12,79,61,43,50,40,24,92,53,14,30.06,29.98,14,2,21,0.00
2013-6-13,65,56,44,46,37,25,95,52,23,30.14,30.03,16,4,26,0.04
2013-6-14,72,52,41,44,38,29,92,64,21,30.24,30.13,8,2,16,0.02
2013-6-15,86,59,34,47,33,21,95,50,10,30.18,30.06,5,2,11,0.00
2013-6-16,92,67,42,48,35,21,83,41,10,30.13,30.05,10,2,14,0.00
2013-6-17,89,67,46,50,37,22,72,40,10,30.14,29.97,12,2,26,0.00
2013-6-18,82,65,47,52,41,27,89,48,15,29.99,29.82,16,2,31,0.00
2013-6-19,55,49,46,50,47,45,99,91,76,29.90,29.82,9,2,15,0.39
2013-7-5,92,71,49,62,46,26,84,50,10,30.01,29.93,11,2,17,0.05
2013-7-6,99,71,44,54,42,25,99,48,10,30.03,29.95,8,2,11,0.00
2013-7-7,107,74,46,55,43,32,82,43,10,30.03,29.96,8,2,13,0.00
2013-7-8,101,73,50,60,43,25,87,44,10,30.19,29.99,11,2,18,0.00
2013-7-9,106,74,47,56,44,30,91,46,10,30.26,30.17,4,2,7,0.00
2013-7-10,106,76,49,56,43,27,82,41,10,30.18,29.99,8,2,11,0.00
2013-7-11,90,62,54,59,50,43,83,68,20,30.06,30.01,7,2,12,0.01
2013-7-12,99,69,46,61,47,29,99,58,10,30.06,29.95,11,2,23,0.00
2013-7-13,98,69,45,53,39,22,88,45,10,30.18,30.02,11,2,20,0.00
2013-7-14,104,73,46,53,40,27,95,42,10,30.24,30.10,7,2,12,0.00
2013-7-15,112,74,46,58,43,30,89,44,10,30.13,30.00,11,1,16,0.00
2013-7-16,113,78,52,60,50,37,85,47,10,30.10,29.99,12,2,21,0.00
2013-7-17,107,79,59,64,48,24,85,45,10,30.23,30.08,8,2,14,0.00
2013-7-18,111,78,52,58,46,30,85,43,10,30.29,30.17,6,2,11,0.00
2013-7-19,112,78,50,57,44,30,90,39,10,30.23,30.09,12,2,16,0.00
2013-7-20,111,76,51,53,42,27,88,40,10,30.14,30.02,8,2,13,0.00
2013-7-21,114,76,48,50,39,23,80,35,10,30.08,30.01,8,2,16,0.00
2013-7-22,106,74,45,52,36,24,68,33,10,30.14,30.05,9,2,16,0.00
2013-7-23,113,74,44,50,39,27,78,36,10,30.22,30.11,5,1,11,0.00
2013-7-24,109,78,55,56,40,24,74,33,10,30.18,30.11,8,2,14,0.00
2013-7-25,109,77,52,53,41,27,81,37,10,30.21,30.15,8,2,11,0.00
2013-7-26,108,75,52,57,45,26,92,43,10,30.27,30.16,12,2,21,0.00
2013-7-27,103,76,57,58,42,21,81,40,10,30.17,30.02,11,2,23,0.00
2013-7-28,104,71,47,56,36,22,78,39,10,30.05,29.97,14,2,24,0.00
2013-7-29,98,72,44,51,34,20,80,33,10,30.08,30.00,10,2,17,0.00
2013-7-30,109,74,52,52,38,22,71,35,10,30.22,30.08,11,2,18,0.00
2013-7-31,103,71,48,59,42,28,67,40,10,30.23,30.06,6,1,11,0.00
2013-8-1,97,68,47,59,49,41,99,58,15,30.11,29.95,16,2,28,0.00
2013-8-2,92,62,41,58,44,27,99,62,13,30.16,30.06,9,2,15,0.00
2013-8-3,102,67,41,52,40,23,99,51,10,30.20,30.13,7,1,15,0.00
2013-8-4,102,68,43,52,38,24,93,46,10,30.21,30.10,8,2,11,0.00
2013-8-5,108,73,46,55,40,27,83,41,10,30.14,30.04,11,2,18,0.00
2013-8-6,110,75,49,54,42,29,93,42,10,30.17,30.08,5,1,9,0.00
2013-8-7,107,74,47,51,38,24,89,38,10,30.15,30.03,6,2,14,0.00
2013-8-8,106,72,53,53,42,28,74,40,10,30.09,30.01,8,2,16,0.00
2013-8-9,102,73,52,55,44,30,82,43,10,30.08,30.00,12,2,24,0.00
2013-8-10,100,70,49,53,40,24,91,44,10,30.11,30.05,11,2,19,0.00
2013-8-11,94,67,53,62,46,26,87,52,10,30.14,30.08,7,2,11,0.00
2013-8-12,88,59,46,54,47,43,97,70,28,30.15,30.10,4,1,8,0.00
2013-8-13,106,74,53,66,45,25,99,48,10,30.24,30.12,11,2,19,0.00
2013-8-14,106,73,48,55,41,22,83,42,10,30.17,30.07,5,2,8,0.00
2013-8-15,110,80,48,50,35,27,84,24,10,30.15,30.05,7,2,15,0.00
2013-8-16,105,73,49,55,38,27,77,36,10,30.17,30.08,11,2,20,0.00
2013-8-17,110,75,48,55,42,29,88,41,10,30.19,30.08,21,2,27,0.00
2013-8-18,106,73,50,56,45,26,89,47,10,30.21,30.13,14,2,21,0.00
2013-8-19,108,74,49,56,42,26,90,43,10,30.22,30.09,14,2,25,0.00
2013-8-20,106,73,48,51,41,25,85,42,10,30.17,30.07,11,2,18,0.00
2013-8-21,103,72,48,54,43,27,89,47,10,30.18,30.10,14,2,20,0.00
2013-8-22,99,74,55,59,49,40,92,47,14,30.18,30.02,13,2,24,0.00
2013-8-23,102,69,51,60,46,25,98,56,10,30.10,29.97,12,2,19,0.00
2013-8-24,105,69,45,56,44,32,89,50,10,30.04,29.93,8,1,17,0.00
2013-8-25,95,70,50,53,46,37,90,49,15,30.09,29.99,12,2,20,0.00
2013-8-26,97,67,50,55,42,24,84,48,10,30.15,30.06,13,2,21,0.00
2013-8-27,106,69,45,58,44,32,99,50,10,30.13,29.99,15,2,27,0.00
2013-8-28,104,72,56,62,52,32,99,61,10,30.12,30.00,8,2,14,0.00
2013-8-29,103,71,52,64,48,30,93,53,10,30.17,30.11,12,2,21,0.00
2013-8-30,102,68,46,53,41,27,95,48,10,30.25,30.15,10,2,18,0.00
2013-8-31,112,71,44,54,42,29,99,48,10,30.22,30.08,5,1,8,0.00
2013-9-1,103,69,46,58,41,27,88,46,10,30.13,30.01,7,1,12,0.00
2013-9-2,93,67,54,65,52,41,92,60,22,30.14,30.03,7,1,14,0.00
2013-9-3,98,68,57,71,57,50,99,74,21,30.21,30.12,8,2,16,0.00
2013-9-4,108,73,54,64,56,46,99,65,14,30.23,30.11,8,1,13,0.00
2013-9-5,94,57,-29,67,38,-68,99,61,10,30.22,30.03,24,2,42,0.01
2013-9-6,93,46,22,50,6,-26,79,24,10,30.21,30.10,12,4,21,0.01
2013-9-7,102,63,40,53,42,30,99,60,10,30.21,30.11,8,2,13,0.00
2013-9-8,98,62,41,51,45,37,99,62,12,30.15,30.07,11,2,20,0.00
2013-9-9,95,64,42,52,46,36,99,60,13,30.17,30.08,10,2,17,0.00
2013-9-10,105,66,43,53,43,26,99,57,10,30.17,30.08,8,1,14,0.00
2013-9-11,108,72,43,51,41,28,98,43,10,30.21,30.10,9,2,16,0.00
2013-9-12,103,70,54,63,50,38,97,55,11,30.20,30.09,5,1,9,0.00
2013-9-13,96,63,55,78,59,52,99,91,24,30.14,29.99,8,1,15,0.00
2013-9-14,96,66,50,75,55,47,99,73,26,30.07,30.01,8,1,16,0.00
2013-9-15,104,69,54,58,53,42,99,63,15,30.07,29.95,12,1,20,0.00
2013-9-16,96,65,49,63,45,24,99,63,10,30.05,29.97,12,2,19,0.00
2013-9-17,77,55,42,55,45,39,98,72,30,29.98,29.78,11,2,22,0.00
2013-9-18,76,50,36,46,40,30,99,74,20,30.19,29.91,12,2,24,0.00
2013-9-19,37,34,32,37,34,32,99,99,99,30.23,30.19,4,1,6,0.00
2013-9-20,99,69,32,48,35,21,99,40,10,30.12,29.81,7,2,12,0.00
2013-9-21,78,58,44,42,37,31,77,48,20,29.88,29.79,9,2,16,0.00
2013-9-22,79,52,43,49,42,35,99,70,22,29.94,29.78,11,2,21,0.00
2013-9-23,81,52,39,53,42,32,99,74,21,30.09,29.94,13,2,22,0.00
2013-9-24,48,45,41,46,44,41,99,96,83,30.03,29.85,10,1,15,0.00
2013-9-25,58,44,36,47,39,35,99,85,51,29.85,29.76,9,2,18,0.00
2013-9-26,69,44,35,42,36,31,99,78,30,30.05,29.82,11,3,22,0.00
2013-9-27,65,43,31,42,35,30,99,77,33,30.13,30.04,11,2,19,0.00
2013-9-28,61,46,38,52,44,38,99,94,62,30.13,29.92,11,2,20,0.00
2013-9-29,56,44,37,50,42,37,99,93,53,29.95,29.81,17,2,30,0.00
2013-9-30,74,42,-39,53,25,-74,99,62,10,30.05,29.75,16,3,30,0.00
2013-10-1,78,44,30,61,33,27,99,71,19,30.05,29.90,14,2,21,0.00
2013-10-2,41,30,25,38,29,25,99,96,73,30.03,29.97,4,1,6,0.00
2013-10-3,63,46,34,35,31,25,97,61,27,30.17,29.83,14,5,27,0.00
2013-10-4,81,45,26,32,25,11,97,61,10,30.31,30.16,8,2,12,0.00
2013-10-5,87,45,23,39,28,15,99,68,10,30.34,30.25,4,1,6,0.00
2013-10-6,90,48,25,39,28,14,99,64,10,30.27,30.02,8,1,12,0.00
2013-10-7,82,47,29,43,30,16,99,62,10,30.02,29.85,9,2,21,0.00
2013-10-8,63,40,28,37,33,28,99,79,28,29.90,29.83,11,2,17,0.00
2013-10-9,34,33,31,33,33,31,99,99,99,29.83,29.81,2,0,4,0.00
2013-10-10,73,42,27,39,31,19,99,74,14,29.88,29.74,8,1,13,0.00
2013-10-11,79,51,25,35,24,12,99,49,10,29.99,29.88,4,1,10,0.00
2013-10-12,69,42,28,38,32,28,98,73,22,29.94,29.88,5,1,12,0.00
2013-10-13,71,44,28,40,32,28,99,72,20,30.08,29.92,10,2,20,0.00
2013-10-14,75,51,26,34,24,13,99,50,10,30.19,30.08,8,3,15,0.00
2013-10-15,68,68,68,17,17,17,14,14,14,30.24,30.12,4,4,8,0.00
2013-10-16,68,68,68,17,17,17,14,14,14,30.13,30.00,4,4,8,0.00
2013-10-17,68,68,68,17,17,17,14,14,14,30.13,30.04,4,4,8,0.00
2013-10-18,68,68,68,17,17,17,14,14,14,30.19,30.11,4,4,8,0.00
2013-10-19,68,68,68,17,17,17,14,14,14,30.14,30.01,4,4,8,0.00
2013-10-20,68,68,68,17,17,17,14,14,14,30.09,30.02,4,4,8,0.00
2013-10-21,68,68,68,17,17,17,14,14,14,30.14,30.08,4,4,8,0.00
2013-10-22,68,68,68,17,17,17,14,14,14,30.17,30.06,4,4,8,0.00
2013-10-23,68,68,68,17,17,17,14,14,14,30.11,30.07,4,4,8,0.00
2013-11-19,0,0,0,17,17,17,0,0,100,29.57,29.53,0,0,0,0.00
2013-11-20,0,0,0,17,17,17,0,0,100,29.82,29.51,0,0,0,0.00
2013-11-21,0,0,0,17,17,17,0,0,100,30.18,29.81,0,0,0,0.00
2013-11-22,0,0,0,17,17,17,0,0,100,30.20,30.12,0,0,0,0.00
2013-11-23,0,0,0,17,17,17,0,0,100,30.13,29.94,0,0,0,0.00
2013-11-24,0,0,0,17,17,17,0,0,100,29.94,29.91,0,0,0,0.00
2013-12-13,0,0,0,17,17,17,0,0,100,30.08,29.94,0,0,0,0.00
2013-12-14,0,0,0,17,17,17,0,0,100,30.17,30.08,0,0,0,0.00
2013-12-15,0,0,0,17,17,17,0,0,100,30.14,30.02,0,0,0,0.00
2013-12-16,0,0,0,17,17,17,0,0,100,30.14,30.07,0,0,0,0.00
2013-12-17,0,0,0,17,17,17,0,0,100,30.13,29.83,0,0,0,0.00
2013-12-18,0,0,0,17,17,17,0,0,100,29.83,29.51,0,0,0,0.00
2013-12-19,0,0,0,17,17,17,0,0,100,29.71,29.51,0,0,0,0.00
2013-12-20,0,0,0,17,17,17,0,0,100,29.70,29.45,0,0,0,0.00
2013-12-21,0,0,0,17,17,17,0,0,100,29.77,29.46,0,0,0,0.00
2013-12-22,0,0,0,17,17,17,0,0,100,29.99,29.76,0,0,0,0.00
2013-12-23,0,0,0,17,17,17,0,0,100,30.01,29.86,0,0,0,0.00
2013-12-24,0,0,0,17,17,17,0,0,100,30.19,29.95,0,0,0,0.00
2013-12-25,0,0,0,17,17,17,0,0,100,30.21,30.11,0,0,0,0.00
2013-12-26,0,0,0,17,17,17,0,0,100,30.14,30.06,0,0,0,0.00
2013-12-27,0,0,0,17,17,17,0,0,100,30.08,29.87,0,0,0,0.00
2013-12-28,0,0,0,17,17,17,0,0,100,30.04,29.86,0,0,0,0.00
2013-12-29,0,0,0,17,17,17,0,0,100,30.06,29.94,0,0,0,0.00
2013-12-30,0,0,0,17,17,17,0,0,100,30.00,29.91,0,0,0,0.00
2013-12-31,0,0,0,17,17,17,0,0,100,29.98,29.84,0,0,0,0.00
2014-1-1,0,0,0,17,17,17,0,0,100,30.08,29.98,0,0,0,0.00
2014-1-2,0,0,0,17,17,17,0,0,100,30.03,29.77,0,0,0,0.00